[[{"header":{"parameterUnit":"m.s-1","parameterCategory":2,"la1":30.2991,"la2":30.254,"lo1":-89.0895,"lo2":-89.0444,"dy":0.0017,"dx":0.0017,"nx":28,"ny":28,"refTime":"2025-05-16T03:00:00:Z","depth":"0","parameterNumber":2,"parameterNumberName":"U-component_of_CURRENTS"},"data":[0,0,0,0,0,0,0,0,0,0,0,0,0,0,0,0,0,0,0,0,0,0,0,0,0,0,0,0,0,0,0,0,0,0,0,0,0,0,0,0,0,0,0,0,0,0,0,0,0,0,0,0,0,0,0,0,0,0,0.3499,0.3501,0,0.3642,0.3643,0.3644,0.3647,0.3646,0.3645,0.3644,0.3745,0.3749,0.3753,0,0,0,0,0,0,0,0,0,0,0,0,0,0.3328,0.3329,0.3498,0.3501,0.3503,0.3642,0.3643,0.3644,0.3648,0.3646,0.3645,0.3643,0.3744,0.3748,0.3753,0,0,0,0,0,0,0,0,0,0,0,0,0,0.3423,0.333,0.3498,0.3526,0.353,0.3641,0.3643,0.3645,0.3648,0.3646,0.3644,0.3643,0.3742,0.3748,0.3754,0.3826,0,0,0.3771,0.3774,0,0,0,0,0,0,0,0,0.3418,0.3429,0.352,0.3524,0.3529,0.363,0.3621,0.3705,0.3648,0.3597,0.3644,0.3642,0.3708,0.3717,0.374,0.3831,0.3835,0.3772,0.3775,0.3778,0.3779,0,0,0,0,0,0,0,0.3411,0.3423,0.3549,0.3522,0.3528,0.3566,0.3576,0.3637,0.3656,0.3601,0.3603,0.363,0.3709,0.3734,0.3742,0.3837,0.3772,0.3777,0.378,0.3783,0.4036,0.4039,0,0,0,0,0,0,0.3403,0.3417,0.3545,0.3554,0.3475,0.3571,0.3582,0.3595,0.3656,0.3666,0.3631,0.3629,0.3725,0.3735,0.3746,0.3874,0.3778,0.3783,0.3786,0.4033,0.4037,0.404,0,0,0,0,0,0,0.3398,0.3412,0.3539,0.3494,0.3513,0.3575,0.359,0.3599,0.3629,0.368,0.3687,0.3653,0.3724,0.3738,0.3816,0.3876,0.3786,0.3791,0.4029,0.4034,0.4038,0.4104,0,0,0,0,0,0,0.3392,0.3409,0.3417,0.3493,0.3516,0.3614,0.3593,0.3603,0.365,0.3649,0.3702,0.3709,0.3724,0.3807,0.3821,0.3882,0.3795,0.4025,0.4031,0.4037,0.4098,0.4111,0.4122,0,0,0,0,0,0.3386,0.3408,0.3416,0.3432,0.3523,0.3617,0.3632,0.3666,0.3653,0.3681,0.3717,0.3708,0.3856,0.3815,0.3831,0.3894,0.4022,0.4029,0.4036,0.4093,0.4109,0.4122,0,0,0,0,0,0,0.3344,0.3414,0.3423,0.3466,0.354,0.3619,0.3659,0.3677,0.3729,0.3724,0.375,0.3763,0.3863,0.3871,0.3825,0.3987,0.3939,0.3949,0.3976,0.3991,0.4003,0.3961,0.38,0,0,0,0,0,0.3339,0.3365,0.345,0.3484,0.3527,0.3592,0.3634,0.3659,0.3719,0.3739,0.378,0.3833,0.391,0.3939,0.4006,0.4087,0.4093,0.414,0.4152,0.4162,0.4141,0.4223,0.4239,0.4064,0.4064,0.4064,0,0,0.3331,0.3376,0.3389,0.3477,0.3536,0.3617,0.3611,0.3685,0.3742,0.3745,0.3832,0.3886,0.3946,0.4047,0.409,0.4054,0.4221,0.4171,0.4179,0.4152,0.4232,0.4248,0.4263,0.4069,0.4068,0.4068,0,0,0.3356,0.3376,0.3422,0.3487,0.3584,0.3635,0.3659,0.3752,0.378,0.3875,0.3903,0.3978,0.4086,0.4138,0.4179,0.4297,0.4294,0.4332,0.4344,0.4425,0.4439,0.4451,0.4492,0.4507,0.4322,0.4322,0.4322,0,0.3348,0.341,0.3454,0.3531,0.3587,0.3646,0.3723,0.378,0.388,0.3918,0.3908,0.4086,0.413,0.4253,0.4287,0.4323,0.4351,0.4282,0.4438,0.445,0.4461,0.4499,0.4515,0.4326,0.4326,0.4325,0.4325,0,0.3415,0.3473,0.3515,0.3619,0.3687,0.376,0.3852,0.3914,0.3954,0.4009,0.4132,0.4196,0.4286,0.4333,0.434,0.446,0.445,0.4455,0.439,0.4482,0.4518,0.4533,0.4332,0.433,0.4329,0.4328,0,0,0.3374,0.3529,0.354,0.3601,0.3731,0.3794,0.39,0.4012,0.4075,0.416,0.4249,0.4367,0.4381,0.4425,0.4462,0.4513,0.4621,0.4505,0.4508,0.4524,0.4779,0.4621,0.4622,0.4659,0.4662,0.4664,0.4774,0,0.3416,0.3551,0.3617,0.3742,0.3826,0.3903,0.3997,0.4095,0.4173,0.4275,0.4341,0.445,0.4427,0.4477,0.4528,0.4622,0.4663,0.4589,0.4704,0.4706,0.4538,0.4635,0.4412,0.4478,0.4789,0.4791,0.4793,0,0.3451,0.3544,0.3664,0.3808,0.3849,0.3918,0.4053,0.4144,0.429,0.4355,0.4449,0.4512,0.4623,0.4582,0.4733,0.4691,0.4722,0.4765,0.4771,0.4598,0.4575,0.4438,0.4494,0.4432,0.4816,0.4814,0.4813,0,0.3392,0.3564,0.3647,0.3699,0.3878,0.3925,0.401,0.4155,0.4246,0.4401,0.4492,0.4611,0.4693,0.4767,0.4833,0.4806,0.4979,0.4964,0.4843,0.4832,0.4646,0.4611,0.4626,0.5044,0.5044,0.5043,0.5043,0,0.3393,0.3462,0.3619,0.3666,0.3768,0.389,0.3995,0.4102,0.4267,0.439,0.4512,0.4618,0.4744,0.4852,0.4885,0.4905,0.5027,0.4845,0.4855,0.4663,0.463,0.4566,0.4538,0.5047,0.5046,0.5046,0.5045,0,0.3316,0.3417,0.3529,0.3698,0.3741,0.3806,0.3981,0.4073,0.4234,0.4401,0.4462,0.4661,0.4785,0.4885,0.5018,0.496,0.4869,0.4978,0.4715,0.4687,0.4443,0.4425,0.4249,0.4133,0.4852,0.4849,0.4846,0,0.3289,0.3339,0.3513,0.3573,0.3641,0.3755,0.3842,0.4026,0.4132,0.4412,0.4488,0.4668,0.4754,0.4877,0.4827,0.4844,0.4767,0.4625,0.4505,0.4392,0.4384,0.4244,0.4151,0.4311,0.4304,0.4298,0.4294,0,0.3252,0.3304,0.3405,0.3524,0.3611,0.3718,0.3846,0.3921,0.4149,0.4275,0.4429,0.452,0.4628,0.4525,0.4541,0.4519,0.4388,0.4502,0.4485,0.4021,0.3773,0.3678,0.427,0.4244,0.4249,0.4252,0.4255,0.4257,0.3214,0.3267,0.3389,0.3488,0.3576,0.3649,0.3664,0.3802,0.391,0.4029,0.4227,0.4241,0.4279,0.4236,0.4194,0.3989,0.4014,0.3861,0.3873,0.3761,0.3545,0.3985,0.3898,0.3901,0.3904,0.3906,0.3908,0,0.3177,0.3248,0.3349,0.3444,0.3467,0.3552,0.3643,0.3609,0.3618,0.375,0.3803,0.3795,0.3706,0.3721,0.3591,0.3431,0.3278,0.3347,0.315,0.3111,0.3606,0.3479,0.3174,0.3174,0.3174,0.3174,0.3174,0.3174,0.3166,0.3234,0.329,0.3309,0.3342,0.3286,0.328,0.324,0.3258,0.319,0.3142,0.3209,0.3397,0.3373,0.3209,0.3109,0.294,0.2721,0.2804,0.3225,0.3275,0.3324,0.3201,0.2843,0.2843,0.2156,0.2151,0.2148]},{"header":{"parameterUnit":"m.s-1","parameterCategory":2,"la1":30.2991,"la2":30.254,"lo1":-89.0895,"lo2":-89.0444,"dy":0.0017,"dx":0.0017,"nx":28,"ny":28,"refTime":"2025-05-16T03:00:00:Z","depth":"0","parameterNumber":3,"parameterNumberName":"V-component_of_CURRENTS"},"data":[0,0,0,0,0,0,0,0,0,0,0,0,0,0,0,0,0,0,0,0,0,0,0,0,0,0,0,0,0,0,0,0,0,0,0,0,0,0,0,0,0,0,0,0,0,0,0,0,0,0,0,0,0,0,0,0,0,0,0.0135,0.0135,0,0.0138,0.0138,0.0138,0.012,0.0119,0.0118,0.0118,0.0112,0.0113,0.0113,0,0,0,0,0,0,0,0,0,0,0,0,0,0.0156,0.0156,0.0135,0.0135,0.0135,0.0138,0.0138,0.0138,0.012,0.0119,0.0118,0.0118,0.0112,0.0113,0.0113,0,0,0,0,0,0,0,0,0,0,0,0,0,0.0153,0.0156,0.0135,0.0125,0.0124,0.0138,0.0138,0.0138,0.012,0.0119,0.0118,0.0117,0.0112,0.0113,0.0113,0.0137,0,0,0.0115,0.0116,0,0,0,0,0,0,0,0,0.0153,0.0152,0.0126,0.0126,0.0124,0.0126,0.0143,0.0137,0.012,0.0123,0.0118,0.0117,0.0116,0.0116,0.0121,0.0137,0.0137,0.0116,0.0116,0.0116,0.0116,0,0,0,0,0,0,0,0.0153,0.0152,0.0137,0.0126,0.0125,0.0135,0.0133,0.0142,0.0126,0.0123,0.0121,0.0119,0.0115,0.0121,0.0121,0.0136,0.0115,0.0116,0.0117,0.0117,0.0186,0.0188,0,0,0,0,0,0,0.0149,0.0152,0.0137,0.0137,0.0135,0.0135,0.0133,0.0128,0.0126,0.0124,0.012,0.0118,0.012,0.012,0.012,0.0181,0.0116,0.0117,0.0117,0.0185,0.0187,0.0188,0,0,0,0,0,0,0.0149,0.0148,0.0137,0.0144,0.0143,0.0135,0.013,0.0128,0.0134,0.0124,0.0122,0.0127,0.0119,0.012,0.014,0.0179,0.0117,0.0118,0.0183,0.0185,0.0187,0.0282,0,0,0,0,0,0,0.015,0.0148,0.015,0.0144,0.0143,0.0157,0.013,0.0129,0.0134,0.0132,0.0129,0.0128,0.0118,0.0139,0.014,0.0179,0.0118,0.0181,0.0184,0.0187,0.0277,0.0287,0.0295,0,0,0,0,0,0.0151,0.016,0.015,0.0148,0.0143,0.0158,0.016,0.0151,0.0135,0.015,0.0147,0.0128,0.0157,0.0141,0.0142,0.0182,0.018,0.0183,0.0186,0.0273,0.0285,0.0295,0,0,0,0,0,0,0.0177,0.0159,0.0147,0.0152,0.0158,0.0154,0.0169,0.0158,0.0167,0.0166,0.0148,0.0147,0.0179,0.0166,0.0149,0.0209,0.0165,0.0169,0.023,0.0241,0.0251,0.0261,0.0119,0,0,0,0,0,0.0181,0.0181,0.0171,0.0179,0.0183,0.0176,0.0182,0.0177,0.018,0.0182,0.018,0.0181,0.0195,0.0205,0.0211,0.0247,0.022,0.0272,0.0281,0.0289,0.0298,0.0294,0.0304,0.0199,0.0199,0.0199,0,0,0.0192,0.0184,0.0184,0.0184,0.0188,0.0223,0.0179,0.0196,0.0229,0.0182,0.0227,0.0213,0.021,0.025,0.0264,0.0245,0.0304,0.0293,0.0301,0.0305,0.0298,0.0309,0.0318,0.0201,0.02,0.02,0,0,0.0231,0.0211,0.0231,0.0243,0.0252,0.0257,0.0264,0.0268,0.0273,0.0308,0.0284,0.0292,0.0315,0.0321,0.0327,0.0391,0.035,0.0392,0.0457,0.0453,0.0462,0.0469,0.0443,0.0448,0.0402,0.0402,0.0402,0,0.0249,0.027,0.0244,0.0278,0.0303,0.0278,0.0327,0.0337,0.0348,0.0367,0.0336,0.037,0.0354,0.0409,0.0424,0.0414,0.0394,0.0416,0.0466,0.0472,0.0478,0.045,0.0453,0.0407,0.0407,0.0406,0.0406,0,0.031,0.0333,0.0352,0.0388,0.0412,0.0448,0.0458,0.0483,0.048,0.0488,0.0527,0.0499,0.0517,0.0514,0.0488,0.0532,0.0497,0.0474,0.0438,0.0494,0.0461,0.0463,0.0414,0.0413,0.0411,0.041,0,0,0.0343,0.0386,0.0395,0.0439,0.0473,0.0508,0.0563,0.0614,0.0664,0.0655,0.0715,0.0706,0.0671,0.0673,0.0636,0.0627,0.0635,0.057,0.0568,0.0547,0.0613,0.0548,0.0543,0.062,0.0621,0.0622,0.0571,0,0.0407,0.0492,0.0495,0.0598,0.0653,0.0657,0.0719,0.0758,0.0776,0.0827,0.0793,0.0833,0.074,0.0751,0.0723,0.0669,0.0645,0.065,0.056,0.0557,0.0494,0.0546,0.0554,0.0506,0.0572,0.0573,0.0573,0,0.0473,0.0527,0.0625,0.0719,0.0743,0.0798,0.0896,0.0949,0.0998,0.1008,0.1017,0.0988,0.0979,0.0887,0.0804,0.0812,0.0715,0.0655,0.0651,0.056,0.0497,0.0461,0.0506,0.0381,0.0575,0.0575,0.0575,0,0.0526,0.0624,0.0709,0.074,0.0834,0.0884,0.0941,0.1006,0.108,0.1128,0.1186,0.114,0.1143,0.1028,0.0875,0.0848,0.0774,0.0724,0.0571,0.0565,0.0538,0.0527,0.0454,0.0658,0.0658,0.0658,0.0658,0,0.0597,0.0669,0.0741,0.0791,0.0918,0.0955,0.1086,0.1129,0.1219,0.1346,0.1281,0.1357,0.1178,0.111,0.0941,0.0765,0.0819,0.0592,0.0557,0.0569,0.0562,0.0423,0.0317,0.0656,0.0657,0.0657,0.0657,0,0.0643,0.0681,0.0794,0.09,0.0943,0.1038,0.1189,0.1295,0.1354,0.1517,0.1547,0.1531,0.1439,0.1239,0.1058,0.0865,0.0602,0.0616,0.0626,0.0593,0.0312,0.021,0.0056,-0.002,0.0444,0.0442,0.0441,0,0.0674,0.0731,0.0869,0.0954,0.1006,0.1145,0.1257,0.1354,0.1481,0.1643,0.1741,0.1694,0.1693,0.1376,0.1031,0.0721,0.0563,0.0506,0.0446,0.0308,0.0169,0.0106,0.005,0.0446,0.0445,0.0444,0.0443,0,0.0747,0.0783,0.088,0.1046,0.1175,0.1335,0.1499,0.1615,0.1767,0.1903,0.2059,0.2069,0.1764,0.1448,0.0988,0.0764,0.0397,0.0471,0.0346,0.0177,0.0088,-0.0004,0.045,0.0433,0.0434,0.0435,0.0436,0.0436,0.08,0.0883,0.1004,0.117,0.1321,0.1517,0.1658,0.1841,0.2053,0.2264,0.2267,0.2297,0.1843,0.1214,0.0893,0.0322,0.0299,0.0158,0.0049,0.0003,-0.0083,0.0329,0.0257,0.0257,0.0257,0.0257,0.0257,0,0.0884,0.0978,0.113,0.133,0.1505,0.157,0.1824,0.1975,0.2225,0.238,0.2493,0.2279,0.1723,0.116,0.0382,-0.0004,-0.0131,-0.0204,-0.0264,-0.0301,0.0099,0.0089,-0.0043,-0.0043,-0.0043,-0.0043,-0.0042,-0.0042,0.0935,0.1084,0.1167,0.1455,0.1597,0.1833,0.1978,0.219,0.2336,0.2514,0.2516,0.2491,0.2079,0.0735,-0.0123,-0.0327,-0.0563,-0.0651,-0.077,-0.047,-0.0443,-0.0416,-0.0445,-0.0688,-0.0689,-0.1082,-0.1087,-0.109]}],[{"header":{"parameterUnit":"m.s-1","parameterCategory":2,"la1":30.2991,"la2":30.254,"lo1":-89.0895,"lo2":-89.0444,"dy":0.0017,"dx":0.0017,"nx":28,"ny":28,"refTime":"2025-05-16T03:00:00:Z","depth":"2","parameterNumber":2,"parameterNumberName":"U-component_of_CURRENTS"},"data":[0,0,0,0,0,0,0,0,0,0,0,0,0,0,0,0,0,0,0,0,0,0,0,0,0,0,0,0,0,0,0,0,0,0,0,0,0,0,0,0,0,0,0,0,0,0,0,0,0,0,0,0,0,0,0,0,0,0,0.3099,0.31,0,0.3182,0.3182,0.3183,0.3165,0.3164,0.3163,0.3163,0.3254,0.3257,0.326,0,0,0,0,0,0,0,0,0,0,0,0,0,0.3003,0.3004,0.3099,0.3101,0.3102,0.3182,0.3182,0.3183,0.3166,0.3164,0.3163,0.3162,0.3252,0.3256,0.326,0,0,0,0,0,0,0,0,0,0,0,0,0,0.3056,0.3004,0.3099,0.3107,0.3109,0.3181,0.3182,0.3183,0.3166,0.3164,0.3163,0.3161,0.3251,0.3256,0.3261,0.3322,0,0,0.3276,0.3279,0,0,0,0,0,0,0,0,0.3053,0.3058,0.3104,0.3107,0.3109,0.3167,0.3182,0.3232,0.3166,0.3138,0.3162,0.3161,0.323,0.3237,0.3248,0.3327,0.3331,0.3277,0.328,0.3282,0.3284,0,0,0,0,0,0,0,0.3049,0.3055,0.3126,0.3106,0.3109,0.3134,0.3138,0.3191,0.3188,0.3141,0.3141,0.316,0.323,0.3243,0.325,0.3332,0.3277,0.3281,0.3284,0.3286,0.3484,0.3486,0,0,0,0,0,0,0.3048,0.3052,0.3123,0.3129,0.3083,0.3137,0.3142,0.3145,0.3187,0.3193,0.3161,0.3159,0.3235,0.3244,0.3253,0.3386,0.3282,0.3287,0.329,0.3482,0.3484,0.3487,0,0,0,0,0,0,0.3045,0.3053,0.312,0.3098,0.3108,0.314,0.3144,0.3148,0.3169,0.3203,0.3208,0.318,0.3234,0.3246,0.3292,0.3387,0.3289,0.3294,0.3479,0.3482,0.3486,0.3615,0,0,0,0,0,0,0.3042,0.3051,0.3057,0.3097,0.311,0.317,0.3147,0.3151,0.3185,0.3183,0.3222,0.3227,0.3234,0.3284,0.3297,0.3392,0.3298,0.3476,0.3481,0.3484,0.3608,0.3622,0.3635,0,0,0,0,0,0.3038,0.3047,0.3056,0.3066,0.3115,0.3172,0.3181,0.3195,0.3187,0.3205,0.3217,0.3227,0.3321,0.329,0.3304,0.3403,0.3474,0.3479,0.3484,0.3602,0.3619,0.3634,0,0,0,0,0,0,0.3011,0.3048,0.3058,0.3079,0.3129,0.3172,0.3196,0.3209,0.3235,0.3236,0.3247,0.3255,0.3341,0.334,0.3305,0.3467,0.3405,0.3413,0.3489,0.3506,0.3519,0.3476,0.3302,0,0,0,0,0,0.3011,0.3023,0.3075,0.3097,0.3123,0.3165,0.3192,0.3212,0.3243,0.3252,0.328,0.3316,0.3375,0.3407,0.3449,0.3534,0.3515,0.3606,0.362,0.3631,0.3604,0.3654,0.3669,0.3503,0.3503,0.3503,0,0,0.301,0.3033,0.3042,0.3093,0.3131,0.3187,0.3175,0.3232,0.3275,0.3263,0.3324,0.3367,0.3404,0.3498,0.3538,0.3509,0.3673,0.3638,0.3648,0.3613,0.3661,0.3677,0.3691,0.3507,0.3506,0.3505,0,0,0.3024,0.3037,0.306,0.3107,0.3177,0.3212,0.3234,0.3295,0.3314,0.339,0.3397,0.3468,0.3557,0.3598,0.3632,0.374,0.3741,0.3785,0.383,0.3882,0.3896,0.3907,0.3924,0.3936,0.3795,0.3795,0.3796,0,0.3026,0.3055,0.3082,0.313,0.3173,0.3227,0.3281,0.3324,0.3391,0.3419,0.3421,0.356,0.3602,0.371,0.3753,0.3775,0.3786,0.3774,0.39,0.3911,0.392,0.3934,0.3946,0.3802,0.3801,0.3801,0.38,0,0.3069,0.3098,0.3124,0.3195,0.3248,0.3306,0.3377,0.3426,0.3472,0.3522,0.3629,0.3681,0.3754,0.3816,0.3824,0.394,0.3919,0.3913,0.3859,0.3945,0.3954,0.3964,0.3812,0.3809,0.3807,0.3806,0,0,0.3046,0.3133,0.3139,0.3174,0.3285,0.3327,0.3415,0.3503,0.356,0.3644,0.372,0.3842,0.387,0.3905,0.3947,0.4002,0.4108,0.3995,0.3995,0.401,0.4208,0.4085,0.4083,0.4139,0.4141,0.4143,0.4194,0,0.3071,0.3149,0.3191,0.3274,0.3327,0.3396,0.3476,0.3566,0.3644,0.3733,0.3807,0.3911,0.3907,0.3975,0.4026,0.4101,0.4136,0.4092,0.412,0.4119,0.4,0.4091,0.3776,0.3785,0.4203,0.4204,0.4206,0,0.3091,0.3143,0.3221,0.3309,0.3338,0.3401,0.352,0.3601,0.3738,0.3808,0.3905,0.3964,0.4078,0.4057,0.4173,0.4153,0.4172,0.4205,0.4208,0.404,0.4013,0.3762,0.3786,0.4221,0.422,0.4219,0.4218,0,0.3049,0.3147,0.32,0.3238,0.3366,0.3406,0.3485,0.3626,0.3709,0.3862,0.3951,0.4057,0.4148,0.4189,0.4243,0.4234,0.4342,0.4339,0.4224,0.4215,0.3916,0.3876,0.4377,0.4377,0.4377,0.4377,0.4377,0,0.3043,0.3077,0.3182,0.3211,0.3288,0.3393,0.3492,0.3588,0.3757,0.3869,0.3983,0.4073,0.4191,0.4259,0.4272,0.4273,0.4361,0.4225,0.4225,0.3953,0.3919,0.4259,0.4244,0.4379,0.4378,0.4378,0.4378,0,0.2982,0.3049,0.3104,0.3224,0.3265,0.3322,0.3488,0.3574,0.3745,0.3894,0.3955,0.4132,0.4225,0.4284,0.4375,0.4314,0.4327,0.4287,0.3943,0.3899,0.4155,0.4147,0.4183,0.4179,0.4176,0.4173,0.4171,0,0.2955,0.2985,0.3088,0.3132,0.3181,0.3288,0.3375,0.3551,0.3652,0.3903,0.3968,0.4122,0.4161,0.4231,0.4192,0.4168,0.426,0.3837,0.3748,0.4142,0.4139,0.4135,0.4132,0.3417,0.3409,0.3402,0.3396,0,0.291,0.2941,0.2989,0.3085,0.3156,0.3233,0.3364,0.3426,0.3642,0.3739,0.3856,0.3905,0.4007,0.3841,0.3835,0.3777,0.382,0.3697,0.4217,0.3512,0.3422,0.3418,0.3439,0.3336,0.3342,0.3347,0.335,0.3352,0.2864,0.2882,0.2954,0.3021,0.3098,0.3147,0.3152,0.3271,0.3344,0.344,0.3604,0.3561,0.3615,0.3438,0.3315,0.3233,0.3503,0.3329,0.3349,0.3376,0.3275,0.3185,0.3034,0.3038,0.3041,0.3044,0.3047,0,0.2811,0.2842,0.2903,0.2955,0.2966,0.3056,0.3121,0.3064,0.3026,0.3152,0.3176,0.2914,0.2804,0.2859,0.2648,0.2629,0.2595,0.2506,0.2443,0.2506,0.2561,0.2417,0.1949,0.1945,0.1941,0.1938,0,0,0.2788,0.2784,0.2798,0.2775,0.2831,0.2785,0.2762,0.2675,0.2681,0.2565,0.2526,0.2719,0.2799,0.236,0.2291,0.2085,0.2276,0.1993,0.2883,0.2876,0.2926,0.3053,0.2904,0,0,0,0,0]},{"header":{"parameterUnit":"m.s-1","parameterCategory":2,"la1":30.2991,"la2":30.254,"lo1":-89.0895,"lo2":-89.0444,"dy":0.0017,"dx":0.0017,"nx":28,"ny":28,"refTime":"2025-05-16T03:00:00:Z","depth":"2","parameterNumber":3,"parameterNumberName":"V-component_of_CURRENTS"},"data":[0,0,0,0,0,0,0,0,0,0,0,0,0,0,0,0,0,0,0,0,0,0,0,0,0,0,0,0,0,0,0,0,0,0,0,0,0,0,0,0,0,0,0,0,0,0,0,0,0,0,0,0,0,0,0,0,0,0,0.0013,0.0013,0,0.0009,0.0009,0.0009,-0.0015,-0.0016,-0.0017,-0.0017,-0.0041,-0.0041,-0.0041,0,0,0,0,0,0,0,0,0,0,0,0,0,0.0044,0.0044,0.0013,0.0013,0.0013,0.0009,0.0009,0.0009,-0.0015,-0.0016,-0.0017,-0.0018,-0.0041,-0.0041,-0.0041,0,0,0,0,0,0,0,0,0,0,0,0,0,0.0035,0.0043,0.0013,-0.0,-0.0001,0.0009,0.0009,0.0009,-0.0015,-0.0016,-0.0017,-0.0018,-0.0041,-0.0041,-0.0041,-0.0021,0,0,-0.0041,-0.0041,0,0,0,0,0,0,0,0,0.0036,0.0034,0.0002,0.0001,-0.0001,-0.0005,0.0011,-0.0003,-0.0015,-0.0009,-0.0017,-0.0019,-0.0031,-0.0032,-0.0029,-0.0023,-0.0024,-0.0041,-0.0041,-0.0041,-0.0041,0,0,0,0,0,0,0,0.0036,0.0034,0.0013,0.0002,0.0,0.0009,0.0006,0.0009,-0.0014,-0.001,-0.0012,-0.0013,-0.0031,-0.0028,-0.0029,-0.0024,-0.0041,-0.0041,-0.0041,-0.0041,0.0,0.0001,0,0,0,0,0,0,0.0034,0.0035,0.0013,0.0012,0.0014,0.0009,0.0006,-0.0002,-0.0013,-0.0016,-0.0012,-0.0014,-0.0028,-0.0029,-0.003,0.0018,-0.0041,-0.0041,-0.0041,-0.0001,0.0,0.0001,0,0,0,0,0,0,0.0034,0.0032,0.0013,0.0023,0.0021,0.0009,0.0001,-0.0001,0.0002,-0.0016,-0.0019,-0.0008,-0.0029,-0.003,-0.0022,0.0015,-0.0041,-0.0041,-0.0002,-0.0001,0.0001,0.0097,0,0,0,0,0,0,0.0035,0.0032,0.0033,0.0023,0.002,0.0029,0.0002,-0.0001,0.0002,-0.0001,-0.0012,-0.0016,-0.003,-0.0022,-0.0022,0.0014,-0.0041,-0.0004,-0.0002,0.0,0.0093,0.0102,0.011,0,0,0,0,0,0.0036,0.0044,0.0033,0.0031,0.002,0.003,0.003,0.0019,0.0003,0.0015,0.0003,-0.0015,-0.0009,-0.0021,-0.0022,0.0016,-0.0005,-0.0002,0.0,0.0089,0.01,0.011,0,0,0,0,0,0,0.0063,0.0041,0.003,0.0031,0.0034,0.0025,0.0038,0.0025,0.0026,0.0025,-0.0,-0.0003,0.0017,0.0,-0.0012,0.0032,-0.001,-0.0007,0.0058,0.0068,0.0077,0.0091,-0.0041,0,0,0,0,0,0.0068,0.0066,0.0052,0.0058,0.0059,0.0049,0.0053,0.0047,0.0042,0.0042,0.0032,0.0024,0.0029,0.0034,0.003,0.0059,0.0025,0.008,0.0089,0.0097,0.0107,0.0083,0.0091,0.001,0.001,0.001,0,0,0.0081,0.007,0.0068,0.0063,0.0064,0.0091,0.005,0.0064,0.009,0.004,0.0072,0.0053,0.004,0.007,0.0078,0.0062,0.0101,0.01,0.0107,0.0113,0.0087,0.0095,0.0102,0.0011,0.0011,0.0011,0,0,0.0116,0.0096,0.0112,0.0119,0.0124,0.0125,0.0131,0.0128,0.0129,0.0154,0.0124,0.0125,0.0135,0.0134,0.0135,0.0188,0.0142,0.0188,0.0254,0.0232,0.0238,0.0244,0.0207,0.0208,0.02,0.02,0.02,0,0.0136,0.015,0.0122,0.015,0.017,0.0145,0.0187,0.0191,0.0192,0.0204,0.0177,0.0188,0.017,0.0208,0.0225,0.0211,0.0181,0.0219,0.0244,0.0248,0.0252,0.0213,0.0213,0.0205,0.0204,0.0204,0.0203,0,0.0188,0.0206,0.0222,0.0248,0.0266,0.0298,0.0301,0.0317,0.0312,0.0315,0.0337,0.0306,0.031,0.0309,0.0287,0.0315,0.0279,0.0252,0.0219,0.0266,0.0221,0.022,0.0212,0.021,0.0209,0.0207,0,0,0.0223,0.0252,0.0261,0.0296,0.0322,0.035,0.0393,0.043,0.0469,0.0454,0.0497,0.0486,0.0452,0.0449,0.0413,0.0398,0.0393,0.0346,0.0342,0.0313,0.0334,0.0292,0.0285,0.037,0.0371,0.0371,0.029,0,0.0281,0.0351,0.0349,0.0436,0.0481,0.0479,0.0529,0.0557,0.0567,0.0601,0.0562,0.0588,0.0511,0.0519,0.0488,0.0424,0.0394,0.0417,0.0289,0.0285,0.0246,0.0284,0.0302,0.023,0.0288,0.0288,0.0287,0,0.034,0.0384,0.0469,0.0542,0.0561,0.0607,0.0684,0.0728,0.0757,0.0763,0.0759,0.0721,0.0702,0.0627,0.0523,0.054,0.0444,0.0381,0.0376,0.0304,0.0241,0.0192,0.0224,0.0284,0.0284,0.0284,0.0285,0,0.0392,0.0472,0.0544,0.057,0.0645,0.0684,0.0732,0.0779,0.0843,0.0869,0.0913,0.085,0.0846,0.0719,0.0563,0.055,0.0436,0.0399,0.0265,0.026,0.0233,0.0225,0.0319,0.0319,0.0319,0.0319,0.032,0,0.0456,0.0517,0.0576,0.0617,0.0727,0.0754,0.0867,0.0898,0.0972,0.1076,0.1001,0.1048,0.0871,0.0777,0.0609,0.0431,0.046,0.0284,0.0244,0.0266,0.0262,0.0275,0.0271,0.0316,0.0317,0.0318,0.0318,0,0.0502,0.0533,0.0625,0.0711,0.0751,0.0833,0.0966,0.1056,0.1103,0.1234,0.1255,0.121,0.109,0.0882,0.0683,0.0511,0.0334,0.0255,0.0282,0.0247,0.0158,0.016,0.0114,0.0112,0.0111,0.0109,0.0108,0,0.0531,0.0581,0.0693,0.0768,0.0811,0.0935,0.1036,0.1119,0.1229,0.1341,0.1418,0.1339,0.1292,0.0959,0.0659,0.0355,0.0315,0.016,0.0139,0.0176,0.0141,0.0146,0.015,0.0135,0.0134,0.0134,0.0133,0,0.0595,0.0624,0.0702,0.0854,0.0966,0.1108,0.1254,0.1357,0.1481,0.1568,0.1656,0.162,0.1329,0.1022,0.0602,0.0394,0.0209,0.0136,0.018,0.0185,0.0189,0.0157,0.0162,0.0127,0.0128,0.0128,0.0128,0.0129,0.0641,0.0709,0.0811,0.0959,0.1095,0.1269,0.1393,0.1542,0.1702,0.1846,0.1807,0.1748,0.1424,0.0882,0.0524,0.0156,0.0187,0.0042,0.0047,0.0052,0.0071,0.0072,-0.0011,-0.0011,-0.0011,-0.0011,-0.0011,0,0.0713,0.0789,0.0923,0.1096,0.1252,0.1319,0.154,0.1649,0.1823,0.1928,0.1965,0.1628,0.1285,0.0907,0.0369,0.0045,0.0026,-0.0074,-0.0019,-0.0011,-0.0004,0.0014,-0.0084,-0.0085,-0.0086,-0.0087,0,0,0.0755,0.0874,0.0941,0.1192,0.1331,0.1543,0.1668,0.1804,0.1904,0.1963,0.1936,0.1862,0.1402,0.0995,0.0555,0.0239,0.0187,0.0167,0.0261,0.0388,0.0399,0.0098,0.0138,0,0,0,0,0]}],[{"header":{"parameterUnit":"m.s-1","parameterCategory":2,"la1":30.2991,"la2":30.254,"lo1":-89.0895,"lo2":-89.0444,"dy":0.0017,"dx":0.0017,"nx":28,"ny":28,"refTime":"2025-05-16T03:00:00:Z","depth":"4","parameterNumber":2,"parameterNumberName":"U-component_of_CURRENTS"},"data":[0,0,0,0,0,0,0,0,0,0,0,0,0,0,0,0,0,0,0,0,0,0,0,0,0,0,0,0,0,0,0,0,0,0,0,0,0,0,0,0,0,0,0,0,0,0,0,0,0,0,0,0,0,0,0,0,0,0,0.1836,0.1836,0,0.1849,0.1849,0.1849,0.1879,0.188,0.188,0.1881,0.1939,0.1939,0.1941,0,0,0,0,0,0,0,0,0,0,0,0,0,0.186,0.1859,0.1836,0.1836,0.1836,0.1849,0.1849,0.1849,0.1879,0.188,0.1881,0.1881,0.1938,0.1939,0.1941,0,0,0,0,0,0,0,0,0,0,0,0,0,0.1859,0.1859,0.1836,0.1852,0.1853,0.1849,0.1849,0.1849,0.1879,0.188,0.1881,0.1882,0.1938,0.1939,0.1941,0.1934,0,0,0.1945,0.1946,0,0,0,0,0,0,0,0,0.1859,0.1859,0.1849,0.1851,0.1852,0.1862,0.1878,0.1879,0.1879,0.187,0.1881,0.1882,0.1916,0.1919,0.1921,0.1936,0.1939,0.1946,0.1946,0.1947,0.1948,0,0,0,0,0,0,0,0.1859,0.1858,0.1842,0.1849,0.1851,0.1866,0.1867,0.1879,0.189,0.1871,0.1873,0.1873,0.1917,0.1919,0.1922,0.194,0.1946,0.1947,0.1948,0.1948,0.2079,0.2081,0,0,0,0,0,0,0.1854,0.1858,0.1841,0.1842,0.1857,0.1865,0.1866,0.1859,0.1889,0.1893,0.1872,0.1874,0.1916,0.192,0.1924,0.2022,0.1947,0.1949,0.1949,0.2076,0.2079,0.2082,0,0,0,0,0,0,0.1854,0.1852,0.1841,0.185,0.185,0.1863,0.1856,0.1859,0.1897,0.1889,0.1895,0.1911,0.1917,0.1922,0.1971,0.202,0.1949,0.1951,0.2073,0.2077,0.2081,0.215,0,0,0,0,0,0,0.1855,0.1852,0.1874,0.185,0.1849,0.1862,0.1855,0.1859,0.1893,0.1897,0.1923,0.1927,0.1918,0.1969,0.1973,0.2021,0.1952,0.207,0.2075,0.208,0.2144,0.2156,0.2165,0,0,0,0,0,0.1855,0.1867,0.1874,0.1874,0.1869,0.1862,0.1865,0.1877,0.1894,0.1915,0.194,0.1929,0.2003,0.1972,0.1976,0.2026,0.2068,0.2074,0.2079,0.214,0.2153,0.2165,0,0,0,0,0,0,0.189,0.187,0.1878,0.1885,0.1889,0.1868,0.1893,0.19,0.1935,0.1954,0.1951,0.1957,0.2026,0.2017,0.1983,0.2081,0.2038,0.2044,0.2082,0.2095,0.2105,0.2094,0.1953,0,0,0,0,0,0.1906,0.1918,0.1896,0.1914,0.1913,0.1914,0.1925,0.193,0.1942,0.196,0.1981,0.2011,0.2046,0.2063,0.209,0.2131,0.2131,0.2171,0.2181,0.219,0.2186,0.2234,0.2247,0.2101,0.2101,0.2101,0,0,0.1926,0.1921,0.1929,0.1925,0.1929,0.1926,0.1924,0.1945,0.1962,0.1961,0.2017,0.2053,0.2069,0.2124,0.2154,0.2124,0.2237,0.2197,0.2204,0.2196,0.2241,0.2255,0.2267,0.2105,0.2104,0.2104,0,0,0.1947,0.1965,0.197,0.1968,0.1976,0.1973,0.1987,0.1991,0.2018,0.2067,0.2082,0.2139,0.219,0.2203,0.2216,0.2298,0.2298,0.2331,0.2363,0.241,0.2422,0.2432,0.2463,0.2475,0.2326,0.2326,0.2326,0,0.1978,0.1971,0.1976,0.1969,0.1976,0.1995,0.1996,0.2018,0.2048,0.2091,0.2101,0.2213,0.222,0.2283,0.2312,0.2319,0.2349,0.231,0.2422,0.2432,0.2441,0.247,0.2482,0.233,0.2329,0.2329,0.2329,0,0.1973,0.1985,0.199,0.1989,0.2002,0.2013,0.2023,0.2071,0.2122,0.2156,0.2262,0.2285,0.2353,0.2372,0.2363,0.2447,0.245,0.2436,0.2383,0.246,0.2486,0.2498,0.2336,0.2334,0.2333,0.2332,0,0,0.1985,0.1987,0.1993,0.1996,0.2014,0.2016,0.2067,0.2118,0.2176,0.2247,0.2327,0.2394,0.2447,0.2464,0.2479,0.2504,0.259,0.2505,0.2506,0.2523,0.2706,0.2539,0.2536,0.2613,0.2615,0.2617,0.2701,0,0.1984,0.1972,0.1987,0.2003,0.1988,0.2037,0.2081,0.2144,0.2222,0.231,0.2379,0.2468,0.2471,0.2524,0.2559,0.2596,0.2625,0.2568,0.2639,0.2641,0.2472,0.2544,0.2625,0.271,0.2712,0.2714,0.2716,0,0.196,0.1954,0.1958,0.1995,0.2002,0.2039,0.2132,0.218,0.2307,0.2372,0.2486,0.2554,0.2641,0.2614,0.2721,0.2701,0.2711,0.2716,0.2719,0.254,0.2494,0.2617,0.2737,0.2735,0.2734,0.2732,0.2731,0,0.1922,0.194,0.1952,0.1955,0.1996,0.2053,0.2112,0.2225,0.2285,0.2435,0.251,0.2633,0.2715,0.2761,0.2803,0.2787,0.2888,0.2862,0.2717,0.2706,0.2798,0.2786,0.2912,0.2912,0.2912,0.2912,0.2912,0,0.1884,0.1897,0.1947,0.1943,0.1995,0.2046,0.2141,0.2221,0.2344,0.2422,0.256,0.2632,0.2762,0.2842,0.2845,0.2825,0.2938,0.2728,0.2717,0.2828,0.2819,0.2807,0.2794,0.2915,0.2914,0.2914,0.2913,0,0.1822,0.1858,0.1866,0.1932,0.1971,0.2014,0.2145,0.2196,0.234,0.2444,0.2501,0.268,0.2788,0.2871,0.2948,0.2869,0.2857,0.281,0.2934,0.2928,0.2634,0.2624,0.2664,0.2659,0.2654,0.2651,0.2648,0,0.1782,0.1777,0.1846,0.1867,0.1912,0.1991,0.2037,0.2178,0.2232,0.2444,0.2476,0.2657,0.2751,0.2741,0.2833,0.2836,0.2791,0.2764,0.2678,0.2624,0.261,0.2607,0.2603,0.2641,0.2639,0.2638,0.2637,0,0.1692,0.1739,0.1739,0.1773,0.1831,0.1873,0.1969,0.1995,0.2152,0.231,0.2394,0.246,0.2574,0.2644,0.2669,0.2657,0.2771,0.2717,0.2725,0.2644,0.2596,0.2586,0.2587,0.2622,0.2624,0.2626,0.2626,0,0.1634,0.1611,0.1625,0.1639,0.1713,0.1729,0.1796,0.1856,0.1932,0.2168,0.2196,0.2379,0.2552,0.2552,0.2571,0.2558,0.2514,0.2409,0.2432,0.245,0.2338,0.2243,0.2155,0,0,0,0,0,0.1556,0.1497,0.1488,0.1484,0.1555,0.1607,0.1723,0.1791,0.1964,0.1963,0.2071,0.2161,0.2231,0.2336,0.228,0.2469,0.2513,0.239,0.2401,0.2537,0.2555,0.2442,0,0,0,0,0,0,0.1495,0.1476,0.1421,0.1352,0.1348,0.1403,0.1484,0.1599,0.1615,0.1814,0.1874,0.2023,0.2133,0.2243,0.224,0.2265,0.2222,0.2506,0.25,0.2527,0.2543,0.2558,0.2447,0,0,0,0,0]},{"header":{"parameterUnit":"m.s-1","parameterCategory":2,"la1":30.2991,"la2":30.254,"lo1":-89.0895,"lo2":-89.0444,"dy":0.0017,"dx":0.0017,"nx":28,"ny":28,"refTime":"2025-05-16T03:00:00:Z","depth":"4","parameterNumber":3,"parameterNumberName":"V-component_of_CURRENTS"},"data":[0,0,0,0,0,0,0,0,0,0,0,0,0,0,0,0,0,0,0,0,0,0,0,0,0,0,0,0,0,0,0,0,0,0,0,0,0,0,0,0,0,0,0,0,0,0,0,0,0,0,0,0,0,0,0,0,0,0,0.0007,0.0007,0,0.0018,0.0018,0.0019,0.0007,0.0007,0.0006,0.0006,-0.0022,-0.0022,-0.0022,0,0,0,0,0,0,0,0,0,0,0,0,0,0.0016,0.0016,0.0007,0.0007,0.0007,0.0018,0.0018,0.0019,0.0007,0.0007,0.0006,0.0006,-0.0022,-0.0022,-0.0022,0,0,0,0,0,0,0,0,0,0,0,0,0,0.0019,0.0016,0.0007,0.0002,0.0002,0.0018,0.0018,0.0019,0.0008,0.0007,0.0006,0.0005,-0.0021,-0.0022,-0.0022,-0.0008,0,0,-0.0023,-0.0023,0,0,0,0,0,0,0,0,0.0019,0.0019,0.0003,0.0002,0.0002,0.001,0.0012,0.0007,0.0008,0.0006,0.0006,0.0005,-0.0015,-0.0016,-0.001,-0.001,-0.0011,-0.0023,-0.0023,-0.0024,-0.0024,0,0,0,0,0,0,0,0.0019,0.0018,0.0012,0.0003,0.0002,0.0013,0.0012,0.0011,0.0,0.0006,0.0005,0.0005,-0.0015,-0.0009,-0.0011,-0.0011,-0.0023,-0.0024,-0.0024,-0.0024,-0.0013,-0.0012,0,0,0,0,0,0,0.0014,0.0018,0.0012,0.0012,0.0008,0.0013,0.0013,0.0009,0.0001,-0.0001,0.0006,0.0005,-0.0008,-0.001,-0.0012,0.0008,-0.0024,-0.0024,-0.0024,-0.0013,-0.0013,-0.0012,0,0,0,0,0,0,0.0014,0.0013,0.0011,0.0015,0.0015,0.0014,0.001,0.0009,0.0014,0.0001,-0.0002,0.001,-0.0009,-0.0011,-0.0008,0.0007,-0.0024,-0.0024,-0.0014,-0.0013,-0.0012,0.0045,0,0,0,0,0,0,0.0014,0.0013,0.0015,0.0015,0.0015,0.0025,0.001,0.001,0.0015,0.0013,0.0004,0.0,-0.001,-0.0007,-0.0008,0.0006,-0.0025,-0.0015,-0.0014,-0.0013,0.0043,0.0048,0.0052,0,0,0,0,0,0.0015,0.0021,0.0015,0.0014,0.0015,0.0026,0.0028,0.0025,0.0015,0.0024,0.0017,0.0001,-0.0002,-0.0006,-0.0008,0.0006,-0.0015,-0.0014,-0.0013,0.0041,0.0047,0.0052,0,0,0,0,0,0,0.0031,0.0021,0.0014,0.0018,0.0022,0.0024,0.0035,0.0028,0.0031,0.0031,0.0012,0.0009,0.0014,0.0003,-0.0002,0.001,-0.0013,-0.0012,0.0028,0.0033,0.0038,0.005,-0.0025,0,0,0,0,0,0.0034,0.0035,0.0029,0.0035,0.0038,0.0037,0.0042,0.0039,0.0039,0.004,0.0032,0.0024,0.002,0.0021,0.0014,0.0027,-0.0002,0.0032,0.0037,0.0041,0.0049,0.0012,0.0014,-0.0008,-0.0008,-0.0009,0,0,0.0043,0.0038,0.0039,0.0039,0.0044,0.0063,0.0038,0.0051,0.0068,0.0037,0.0057,0.0039,0.0025,0.0037,0.0039,0.003,0.0032,0.0043,0.0047,0.0052,0.0013,0.0016,0.0018,-0.0008,-0.0008,-0.0008,0,0,0.0069,0.0058,0.007,0.0078,0.0084,0.0086,0.0089,0.0092,0.0093,0.0108,0.0086,0.0076,0.0079,0.0069,0.0065,0.0092,0.0055,0.009,0.0131,0.0095,0.0097,0.0098,0.0064,0.0061,0.0097,0.0097,0.0097,0,0.0082,0.0095,0.0079,0.01,0.0115,0.0097,0.0127,0.0129,0.0133,0.0139,0.0121,0.0113,0.0094,0.0105,0.0115,0.0103,0.0078,0.0112,0.0101,0.0102,0.0102,0.0066,0.0063,0.01,0.01,0.01,0.0099,0,0.0121,0.0136,0.0149,0.0167,0.018,0.0203,0.0203,0.0213,0.0207,0.0206,0.0208,0.0178,0.0174,0.0163,0.0151,0.0149,0.0129,0.0107,0.0088,0.0108,0.0069,0.0064,0.0104,0.0103,0.0103,0.0102,0,0,0.0143,0.0169,0.0177,0.0203,0.0219,0.024,0.0264,0.0284,0.0306,0.0288,0.0307,0.0285,0.0259,0.0252,0.0222,0.0192,0.0166,0.016,0.0157,0.0129,0.009,0.008,0.0073,0.0144,0.0143,0.0143,0.0063,0,0.0183,0.0236,0.0237,0.0299,0.0331,0.0328,0.0357,0.0371,0.0369,0.0381,0.0338,0.0342,0.0296,0.0293,0.0257,0.0191,0.0157,0.019,0.0073,0.007,0.006,0.0068,0.0142,0.006,0.0058,0.0057,0.0057,0,0.0224,0.0257,0.0319,0.0373,0.0388,0.042,0.0465,0.0492,0.0494,0.0488,0.0471,0.0433,0.0396,0.0346,0.0241,0.0266,0.0188,0.0126,0.0121,0.0089,0.0051,0.0034,0.0048,0.0048,0.0049,0.005,0.005,0,0.0256,0.0319,0.0371,0.0391,0.0444,0.0475,0.0508,0.0528,0.0565,0.0558,0.0568,0.0507,0.0486,0.0377,0.025,0.0248,0.012,0.0096,0.001,0.0007,0.0015,0.0014,0.0014,0.0015,0.0015,0.0015,0.0015,0,0.0296,0.0344,0.0395,0.0426,0.0508,0.0528,0.0604,0.062,0.065,0.0696,0.0631,0.0631,0.0493,0.0402,0.0273,0.013,0.0133,0.002,-0.0012,0.0041,0.0044,0.0011,0.0012,0.0012,0.0013,0.0013,0.0014,0,0.0322,0.035,0.0422,0.049,0.0524,0.0586,0.068,0.0732,0.0745,0.0796,0.0797,0.0734,0.0617,0.0461,0.0285,0.0174,0.0025,-0.0031,0.0042,0.0015,-0.007,-0.0065,-0.0127,-0.0128,-0.0129,-0.0129,-0.013,0,0.0337,0.0374,0.0471,0.0528,0.0565,0.0659,0.0727,0.0779,0.0833,0.0853,0.0878,0.0791,0.072,0.0472,0.0297,0.0049,0.0008,-0.0075,-0.0076,-0.0059,-0.0084,-0.0078,-0.0072,-0.0131,-0.0131,-0.0132,-0.0132,0,0.0371,0.0402,0.0461,0.0573,0.0658,0.0761,0.0856,0.0901,0.0955,0.0964,0.0945,0.0816,0.0688,0.0487,0.0296,0.0113,-0.0024,-0.0085,-0.0084,-0.0086,-0.0065,-0.0087,-0.0081,-0.0135,-0.0134,-0.0134,-0.0134,0,0.0397,0.0443,0.0517,0.0618,0.0728,0.0829,0.088,0.0944,0.0998,0.1011,0.1001,0.0852,0.0776,0.052,0.0338,0.0163,0.0115,0.0045,0.0038,0.0039,0.0104,0.0156,0.0132,0,0,0,0,0,0.0421,0.0469,0.0559,0.0668,0.0776,0.0842,0.0954,0.0993,0.1037,0.1035,0.1023,0.0897,0.0646,0.0543,0.0368,0.0307,0.0073,0.0093,-0.0015,-0.0151,-0.0148,-0.0101,0,0,0,0,0,0,0.0438,0.0514,0.0554,0.0688,0.0767,0.0892,0.0965,0.0999,0.1001,0.1012,0.0891,0.0834,0.0598,0.0744,0.0357,0.0305,0.0208,-0.0018,-0.0023,-0.0153,-0.015,-0.0147,-0.0098,0,0,0,0,0]}]]